Santa Ynez, CA

8:01 PM PDT on May 28, 2017 (GMT -0700)
Santa Ynez

Weather History for KIZA - August, 2013

Change the Weather History Date:

Wednesday, August 21, 2013

  Actual Average (KSBA) Record (KSBA)
Temperature  
Mean Temperature 68 °F -  
Max Temperature 87 °F 75 °F 85 °F (1972)
Min Temperature 50 °F 56 °F 43 °F (1941)
Cooling Degree Days 4    
Growing Degree Days 18 (Base 50)    
Moisture  
Dew Point 50 °F    
Average Humidity 68    
Maximum Humidity 100    
Minimum Humidity 23    
Precipitation  
Precipitation 0.00 in - - ()
Sea Level Pressure  
Sea Level Pressure 29.92 in    
Wind  
Wind Speed 4 mph (West)    
Max Wind Speed 15 mph    
Max Gust Speed 16 mph    
Visibility 8 miles    
Events Fog    
Averages and records for this station are not official NWS values.
T = Trace of Precipitation, MM = Missing Value Source: NWS Daily Summary

Daily Weather History Graph

Daily Weather History Graph

Search for Another Location

Airport or City:

Trip Planner

Search our weather history database for the weather conditions in past years. The results will help you decide how hot, cold, wet, or windy it might be!

Date:

Astronomy

Aug. 21, 2013 Rise Set
Actual Time 6:25 AM PDT 7:40 PM PDT
Civil Twilight 5:59 AM PDT 8:06 PM PDT
Nautical Twilight 5:28 AM PDT 8:37 PM PDT
Astronomical Twilight 4:55 AM PDT 9:10 PM PDT
Moon 7:58 PM PDT (8/21) 7:07 AM PDT (8/21)
Length of Visible Light 14h 07m
Length of Day
13h 14m
Full, 99% of the Moon is Illuminated
Aug 21
Full
Aug 28
Last Quarter
Sep 5
New
Sep 12
First Quarter
Sep 19
Full

Hourly Weather History & Observations

Time (PDT) Temp. Dew Point Humidity Pressure Visibility Wind Dir Wind Speed Gust Speed Precip Events Conditions
12:15 AM 53.6 °F 50.0 °F 88% 29.93 in 10.0 mi SW 3.5 mph - N/A   Clear
12:35 AM 53.6 °F 48.2 °F 82% 29.93 in 10.0 mi WSW 3.5 mph - N/A   Clear
12:55 AM 53.6 °F 50.0 °F 88% 29.93 in 10.0 mi Calm Calm - N/A   Clear
1:15 AM 53.6 °F 50.0 °F 88% 29.92 in 10.0 mi Calm Calm - N/A   Clear
1:35 AM 53.6 °F 50.0 °F 88% 29.92 in 10.0 mi Calm Calm - N/A   Clear
1:55 AM 53.6 °F 50.0 °F 88% 29.92 in 10.0 mi Calm Calm - N/A   Clear
2:15 AM 51.8 °F 48.2 °F 88% 29.91 in 10.0 mi Calm Calm - N/A   Clear
2:35 AM 53.6 °F 50.0 °F 88% 29.91 in 10.0 mi Calm Calm - N/A   Clear
2:55 AM 51.8 °F 48.2 °F 88% 29.91 in 10.0 mi Calm Calm - N/A   Clear
3:15 AM 50.0 °F 46.4 °F 87% 29.91 in 10.0 mi Calm Calm - N/A   Clear
3:35 AM 51.8 °F 48.2 °F 88% 29.91 in 10.0 mi Calm Calm - N/A   Clear
3:55 AM 51.8 °F 48.2 °F 88% 29.91 in 10.0 mi Calm Calm - N/A   Clear
4:15 AM 51.8 °F 46.4 °F 82% 29.91 in 10.0 mi Calm Calm - N/A   Clear
4:35 AM 50.0 °F 46.4 °F 87% 29.91 in 0.2 mi Calm Calm - N/A Fog Fog
4:55 AM 50.0 °F 50.0 °F 100% 29.91 in 0.2 mi Calm Calm - N/A Fog Fog
5:15 AM 51.8 °F 50.0 °F 94% 29.91 in 0.2 mi Calm Calm - N/A Fog Fog
5:35 AM 50.0 °F 48.2 °F 94% 29.91 in 0.2 mi Calm Calm - N/A Fog Fog
5:55 AM 50.0 °F 46.4 °F 87% 29.92 in 0.2 mi Calm Calm - N/A Fog Fog
6:15 AM 50.0 °F 50.0 °F 100% 29.92 in 0.2 mi WNW 3.5 mph - N/A Fog Fog
6:35 AM 50.0 °F 50.0 °F 100% 29.92 in 0.2 mi Calm Calm - N/A Fog Fog
6:55 AM 50.0 °F 50.0 °F 100% 29.93 in 0.2 mi Calm Calm - N/A Fog Fog
7:15 AM 50.0 °F 50.0 °F 100% 29.93 in 1.5 mi Calm Calm - N/A   Overcast
7:35 AM 50.0 °F 48.2 °F 94% 29.94 in 0.5 mi North 3.5 mph - N/A Fog Fog
7:55 AM 50.0 °F 50.0 °F 100% 29.95 in 0.5 mi Calm Calm - N/A Fog Fog
8:15 AM 51.8 °F 51.8 °F 100% 29.95 in 0.8 mi West 3.5 mph - N/A   Overcast
8:35 AM 51.8 °F 51.8 °F 100% 29.95 in 1.0 mi NW 4.6 mph - N/A   Overcast
8:55 AM 51.8 °F 51.8 °F 100% 29.95 in 2.0 mi Calm Calm - N/A   Overcast
9:15 AM 53.6 °F 51.8 °F 94% 29.95 in 2.0 mi Calm Calm - N/A   Overcast
9:35 AM 53.6 °F 53.6 °F 100% 29.95 in 7.0 mi Calm Calm - N/A   Overcast
9:55 AM 55.4 °F 53.6 °F 94% 29.95 in 10.0 mi West 5.8 mph - N/A   Overcast
10:15 AM 55.4 °F 53.6 °F 94% 29.95 in 10.0 mi West 3.5 mph - N/A   Scattered Clouds
10:35 AM 59.0 °F 53.6 °F 82% 29.95 in 10.0 mi West 5.8 mph - N/A   Clear
10:55 AM 64.4 °F 53.6 °F 68% 29.95 in 10.0 mi West 6.9 mph - N/A   Clear
11:15 AM 68.0 °F 51.8 °F 56% 29.94 in 10.0 mi West 8.1 mph - N/A   Clear
11:35 AM 69.8 °F 51.8 °F 53% 29.94 in 10.0 mi West 8.1 mph - N/A   Clear
11:55 AM 71.6 °F 51.8 °F 50% 29.94 in 10.0 mi West 8.1 mph - N/A   Clear
12:15 PM 75.2 °F 51.8 °F 44% 29.93 in 10.0 mi West 3.5 mph - N/A   Clear
12:35 PM 77.0 °F 51.8 °F 41% 29.92 in 10.0 mi WNW 3.5 mph - N/A   Clear
12:55 PM 78.8 °F 50.0 °F 36% 29.92 in 10.0 mi West 6.9 mph - N/A   Clear
1:15 PM 80.6 °F 50.0 °F 34% 29.91 in 10.0 mi West 8.1 mph - N/A   Clear
1:35 PM 82.4 °F 50.0 °F 32% 29.91 in 10.0 mi WNW 6.9 mph - N/A   Clear
1:55 PM 84.2 °F 50.0 °F 30% 29.90 in 10.0 mi West 8.1 mph - N/A   Clear
2:15 PM 86.0 °F 48.2 °F 27% 29.89 in 10.0 mi WNW 10.4 mph - N/A   Clear
2:35 PM 87.8 °F 48.2 °F 25% 29.89 in 10.0 mi West 10.4 mph - N/A   Clear
2:55 PM 87.8 °F 46.4 °F 24% 29.88 in 10.0 mi West 10.4 mph - N/A   Clear
3:15 PM 86.0 °F 46.4 °F 25% 29.87 in 10.0 mi WNW 11.5 mph - N/A   Clear
3:35 PM 86.0 °F 46.4 °F 25% 29.87 in 10.0 mi NW 11.5 mph 16.1 mph N/A   Clear
3:55 PM 86.0 °F 46.4 °F 25% 29.87 in 10.0 mi West 12.7 mph - N/A   Clear
4:15 PM 86.0 °F 44.6 °F 23% 29.86 in 10.0 mi West 10.4 mph - N/A   Clear
4:35 PM 86.0 °F 46.4 °F 25% 29.86 in 10.0 mi WNW 11.5 mph - N/A   Clear
4:55 PM 84.2 °F 46.4 °F 27% 29.86 in 10.0 mi WNW 11.5 mph - N/A   Clear
5:15 PM 82.4 °F 46.4 °F 28% 29.86 in 10.0 mi WNW 11.5 mph - N/A   Clear
5:35 PM 82.4 °F 46.4 °F 28% 29.86 in 10.0 mi WNW 13.8 mph - N/A   Clear
5:55 PM 80.6 °F 48.2 °F 32% 29.86 in 10.0 mi WNW 15.0 mph - N/A   Clear
6:15 PM 75.2 °F 50.0 °F 41% 29.87 in 10.0 mi WNW 15.0 mph - N/A   Clear
6:35 PM 73.4 °F 50.0 °F 44% 29.88 in 10.0 mi WNW 12.7 mph - N/A   Clear
6:55 PM 71.6 °F 51.8 °F 50% 29.88 in 10.0 mi WNW 10.4 mph - N/A   Clear
7:15 PM 69.8 °F 51.8 °F 53% 29.89 in 10.0 mi WNW 8.1 mph - N/A   Clear
7:35 PM 68.0 °F 51.8 °F 56% 29.89 in 10.0 mi West 5.8 mph - N/A   Clear
7:55 PM 66.2 °F 51.8 °F 60% 29.90 in 10.0 mi West 6.9 mph - N/A   Clear
8:15 PM 64.4 °F 51.8 °F 64% 29.91 in 10.0 mi West 5.8 mph - N/A   Clear
8:35 PM 62.6 °F 51.8 °F 68% 29.92 in 10.0 mi West 4.6 mph - N/A   Clear
8:55 PM 62.6 °F 51.8 °F 68% 29.93 in 10.0 mi West 4.6 mph - N/A   Clear
9:15 PM 60.8 °F 51.8 °F 72% 29.93 in 10.0 mi West 4.6 mph - N/A   Clear
9:35 PM 60.8 °F 51.8 °F 72% 29.94 in 10.0 mi West 3.5 mph - N/A   Clear
9:55 PM 60.8 °F 51.8 °F 72% 29.94 in 10.0 mi Calm Calm - N/A   Clear
10:15 PM 59.0 °F 51.8 °F 77% 29.94 in 10.0 mi Calm Calm - N/A   Clear
10:35 PM 59.0 °F 51.8 °F 77% 29.94 in 10.0 mi Calm Calm - N/A   Clear
10:55 PM 59.0 °F 51.8 °F 77% 29.94 in 10.0 mi West 3.5 mph - N/A   Clear
11:15 PM 59.0 °F 51.8 °F 77% 29.95 in 10.0 mi West 4.6 mph - N/A   Clear
11:35 PM 55.4 °F 50.0 °F 82% 29.95 in 10.0 mi WSW 4.6 mph - N/A   Clear
11:55 PM 55.4 °F 50.0 °F 82% 29.95 in 10.0 mi WSW 3.5 mph - N/A   Clear